Time,TemperatureF,DewpointF,PressureIn,WindDirection,WindDirectionDegrees,WindSpeedMPH,WindSpeedGustMPH,Humidity,HourlyPrecipIn,Conditions,Clouds,dailyrainin,SoftwareType,DateUTC
2013-06-21 00:01:00,68.3,58.2,30.05,SSW,200,0.0,0.0,70,0.00,,,0.00,VWS V14.01,2013-06-21 04:01:00,
2013-06-21 00:06:00,68.1,58.3,30.05,SSW,200,0.0,0.0,71,0.00,,,0.00,VWS V14.01,2013-06-21 04:06:00,
2013-06-21 00:11:00,67.9,58.2,30.05,SSW,199,0.0,0.0,71,0.00,,,0.00,VWS V14.01,2013-06-21 04:11:00,
2013-06-21 00:16:00,67.8,58.5,30.05,SSW,200,0.0,0.0,72,0.00,,,0.00,VWS V14.01,2013-06-21 04:16:00,
2013-06-21 00:21:00,67.5,58.5,30.05,SSW,200,0.0,0.0,73,0.00,,,0.00,VWS V14.01,2013-06-21 04:21:00,
2013-06-21 00:26:00,67.4,58.5,30.05,SSW,199,0.0,0.0,73,0.00,,,0.00,VWS V14.01,2013-06-21 04:26:00,
2013-06-21 00:31:00,67.2,58.6,30.05,SSW,199,0.0,0.0,74,0.00,,,0.00,VWS V14.01,2013-06-21 04:31:00,
2013-06-21 00:36:00,67.1,58.5,30.06,SSW,200,0.0,0.0,74,0.00,,,0.00,VWS V14.01,2013-06-21 04:36:00,
2013-06-21 00:41:00,67.1,58.5,30.05,SSW,200,0.0,0.0,74,0.00,,,0.00,VWS V14.01,2013-06-21 04:41:00,
2013-06-21 00:46:00,66.8,58.3,30.06,SSW,200,0.0,0.0,74,0.00,,,0.00,VWS V14.01,2013-06-21 04:46:00,
2013-06-21 00:51:00,66.8,58.3,30.06,SSW,199,0.0,0.0,74,0.00,,,0.00,VWS V14.01,2013-06-21 04:51:00,
2013-06-21 00:56:00,66.8,58.6,30.06,SSW,200,0.0,0.0,75,0.00,,,0.00,VWS V14.01,2013-06-21 04:56:00,
2013-06-21 01:01:00,66.7,58.5,30.06,SSW,200,0.0,0.0,75,0.00,,,0.00,VWS V14.01,2013-06-21 05:01:00,
2013-06-21 01:06:00,66.7,58.5,30.06,SSW,200,0.0,0.0,75,0.00,,,0.00,VWS V14.01,2013-06-21 05:06:00,
2013-06-21 01:11:00,66.7,58.5,30.06,SSW,200,0.0,0.0,75,0.00,,,0.00,VWS V14.01,2013-06-21 05:11:00,
2013-06-21 01:16:00,66.8,58.6,30.06,SSW,200,0.0,0.0,75,0.00,,,0.00,VWS V14.01,2013-06-21 05:16:00,
2013-06-21 01:21:00,67.0,58.5,30.06,SSW,200,0.0,0.0,74,0.00,,,0.00,VWS V14.01,2013-06-21 05:21:00,
2013-06-21 01:26:00,67.3,58.7,30.06,SSW,200,0.0,0.0,74,0.00,,,0.00,VWS V14.01,2013-06-21 05:26:00,
2013-06-21 01:31:00,67.2,58.6,30.06,SSW,200,0.0,0.0,74,0.00,,,0.00,VWS V14.01,2013-06-21 05:31:00,
2013-06-21 01:36:00,67.1,58.5,30.06,SSW,200,0.0,0.0,74,0.00,,,0.00,VWS V14.01,2013-06-21 05:36:00,
2013-06-21 01:41:00,66.9,58.7,30.06,SSW,200,0.0,0.0,75,0.00,,,0.00,VWS V14.01,2013-06-21 05:41:00,
2013-06-21 01:46:00,66.7,58.5,30.06,SSW,200,0.0,0.0,75,0.00,,,0.00,VWS V14.01,2013-06-21 05:46:00,
2013-06-21 01:51:00,66.5,58.7,30.06,SSW,200,0.0,0.0,76,0.00,,,0.00,VWS V14.01,2013-06-21 05:51:00,
2013-06-21 01:56:00,66.3,58.5,30.06,SSW,200,0.0,0.0,76,0.00,,,0.00,VWS V14.01,2013-06-21 05:56:00,
2013-06-21 02:01:00,66.2,58.4,30.06,SSW,200,0.0,0.0,76,0.00,,,0.00,VWS V14.01,2013-06-21 06:01:00,
2013-06-21 02:06:00,66.0,58.2,30.06,SSW,200,0.0,0.0,76,0.00,,,0.00,VWS V14.01,2013-06-21 06:06:00,
2013-06-21 02:11:00,65.9,58.5,30.06,SSW,200,0.0,0.0,77,0.00,,,0.00,VWS V14.01,2013-06-21 06:11:00,
2013-06-21 02:16:00,66.0,58.6,30.05,SSW,200,0.0,0.0,77,0.00,,,0.00,VWS V14.01,2013-06-21 06:16:00,
2013-06-21 02:21:00,65.8,58.4,30.05,SSW,199,0.0,0.0,77,0.00,,,0.00,VWS V14.01,2013-06-21 06:21:00,
2013-06-21 02:26:00,65.6,58.2,30.05,SSW,200,0.0,0.0,77,0.00,,,0.00,VWS V14.01,2013-06-21 06:26:00,
2013-06-21 02:31:00,65.4,58.0,30.05,SSW,199,0.0,0.0,77,0.00,,,0.00,VWS V14.01,2013-06-21 06:31:00,
2013-06-21 02:36:00,65.3,58.3,30.05,SSW,200,0.0,0.0,78,0.00,,,0.00,VWS V14.01,2013-06-21 06:36:00,
2013-06-21 02:41:00,65.2,58.2,30.05,SSW,199,0.0,0.0,78,0.00,,,0.00,VWS V14.01,2013-06-21 06:41:00,
2013-06-21 02:46:00,65.0,58.0,30.05,SSW,200,0.0,0.0,78,0.00,,,0.00,VWS V14.01,2013-06-21 06:46:00,
2013-06-21 02:51:00,64.8,58.1,30.05,SSW,200,0.0,0.0,79,0.00,,,0.00,VWS V14.01,2013-06-21 06:51:00,
2013-06-21 02:56:00,64.7,58.0,30.05,SSW,199,0.0,0.0,79,0.00,,,0.00,VWS V14.01,2013-06-21 06:56:00,
2013-06-21 03:01:00,64.7,58.4,30.05,SSW,199,0.0,0.0,80,0.00,,,0.00,VWS V14.01,2013-06-21 07:01:00,
2013-06-21 03:06:00,64.8,58.5,30.05,SSW,200,0.0,0.0,80,0.00,,,0.00,VWS V14.01,2013-06-21 07:06:00,
2013-06-21 03:11:00,65.0,58.7,30.05,SSW,200,0.0,0.0,80,0.00,,,0.00,VWS V14.01,2013-06-21 07:11:00,
2013-06-21 03:16:00,65.2,58.9,30.05,SSW,200,0.0,0.0,80,0.00,,,0.00,VWS V14.01,2013-06-21 07:16:00,
2013-06-21 03:21:00,65.4,59.1,30.05,SSW,200,0.0,0.0,80,0.00,,,0.00,VWS V14.01,2013-06-21 07:21:00,
2013-06-21 03:26:00,65.7,59.4,30.05,SSW,199,0.0,0.0,80,0.00,,,0.00,VWS V14.01,2013-06-21 07:26:00,
2013-06-21 03:31:00,65.8,59.1,30.05,SSW,199,0.0,0.0,79,0.00,,,0.00,VWS V14.01,2013-06-21 07:31:00,
2013-06-21 03:36:00,65.7,59.0,30.05,SSW,200,0.0,0.0,79,0.00,,,0.00,VWS V14.01,2013-06-21 07:36:00,
2013-06-21 03:41:00,65.6,58.9,30.05,SSW,199,0.0,0.0,79,0.00,,,0.00,VWS V14.01,2013-06-21 07:41:00,
2013-06-21 03:46:00,65.5,58.8,30.04,SSW,200,0.0,0.0,79,0.00,,,0.00,VWS V14.01,2013-06-21 07:46:00,
2013-06-21 03:51:00,65.4,59.1,30.04,SSW,200,0.0,0.0,80,0.00,,,0.00,VWS V14.01,2013-06-21 07:51:00,
2013-06-21 03:56:00,65.3,58.6,30.05,SSW,199,0.0,0.0,79,0.00,,,0.00,VWS V14.01,2013-06-21 07:56:00,
2013-06-21 04:01:00,65.2,58.9,30.04,SSW,200,0.0,0.0,80,0.00,,,0.00,VWS V14.01,2013-06-21 08:01:00,
2013-06-21 04:07:00,65.0,58.7,30.04,SSW,200,0.0,0.0,80,0.00,,,0.00,VWS V14.01,2013-06-21 08:07:00,
2013-06-21 04:12:00,64.8,58.5,30.04,SSW,200,0.0,0.0,80,0.00,,,0.00,VWS V14.01,2013-06-21 08:12:00,
2013-06-21 04:17:00,64.7,58.7,30.04,SSW,200,0.0,0.0,81,0.00,,,0.00,VWS V14.01,2013-06-21 08:17:00,
2013-06-21 04:22:00,64.6,58.7,30.04,SSW,199,0.0,0.0,81,0.00,,,0.00,VWS V14.01,2013-06-21 08:22:00,
2013-06-21 04:27:00,64.6,58.7,30.04,SSW,200,0.0,0.0,81,0.00,,,0.00,VWS V14.01,2013-06-21 08:27:00,
2013-06-21 04:32:00,64.6,58.7,30.04,SSW,200,0.0,0.0,81,0.00,,,0.00,VWS V14.01,2013-06-21 08:32:00,
2013-06-21 04:37:00,64.6,58.7,30.04,SSW,200,0.0,0.0,81,0.00,,,0.00,VWS V14.01,2013-06-21 08:37:00,
2013-06-21 04:42:00,64.5,58.5,30.04,SSW,200,0.0,0.0,81,0.00,,,0.00,VWS V14.01,2013-06-21 08:42:00,
2013-06-21 04:47:00,64.4,58.5,30.04,SSW,200,0.0,0.0,81,0.00,,,0.00,VWS V14.01,2013-06-21 08:47:00,
2013-06-21 04:52:00,64.3,58.3,30.04,SSW,199,0.0,0.0,81,0.00,,,0.00,VWS V14.01,2013-06-21 08:52:00,
2013-06-21 04:57:00,64.2,58.6,30.04,SSW,200,0.0,0.0,82,0.00,,,0.00,VWS V14.01,2013-06-21 08:57:00,
2013-06-21 05:02:00,64.2,58.6,30.04,SSW,199,0.0,0.0,82,0.00,,,0.00,VWS V14.01,2013-06-21 09:02:00,
2013-06-21 05:07:00,64.2,58.6,30.04,SSW,199,0.0,0.0,82,0.00,,,0.00,VWS V14.01,2013-06-21 09:07:00,
2013-06-21 05:12:00,64.2,58.6,30.04,WSW,243,0.0,1.0,82,0.00,,,0.00,VWS V14.01,2013-06-21 09:12:00,
2013-06-21 05:17:00,64.5,58.5,30.04,WSW,243,0.0,1.0,81,0.00,,,0.00,VWS V14.01,2013-06-21 09:17:00,
2013-06-21 05:22:00,64.5,58.5,30.04,WSW,243,0.0,1.0,81,0.00,,,0.00,VWS V14.01,2013-06-21 09:22:00,
2013-06-21 05:27:00,64.6,58.7,30.04,WSW,243,0.0,1.0,81,0.00,,,0.00,VWS V14.01,2013-06-21 09:27:00,
2013-06-21 05:32:00,65.1,58.8,30.04,WSW,248,0.0,1.0,80,0.00,,,0.00,VWS V14.01,2013-06-21 09:32:00,
2013-06-21 05:37:00,65.8,58.8,30.04,NW,314,0.0,1.0,78,0.00,,,0.00,VWS V14.01,2013-06-21 09:37:00,
2013-06-21 05:42:00,66.1,58.7,30.04,NW,315,0.0,1.0,77,0.00,,,0.00,VWS V14.01,2013-06-21 09:42:00,
2013-06-21 05:47:00,66.1,58.7,30.04,NW,314,0.0,1.0,77,0.00,,,0.00,VWS V14.01,2013-06-21 09:47:00,
2013-06-21 05:52:00,65.9,58.5,30.05,NW,314,0.0,1.0,77,0.00,,,0.00,VWS V14.01,2013-06-21 09:52:00,
2013-06-21 05:57:00,65.6,58.6,30.05,NW,315,0.0,1.0,78,0.00,,,0.00,VWS V14.01,2013-06-21 09:57:00,
2013-06-21 06:02:00,65.3,58.3,30.05,NW,315,0.0,1.0,78,0.00,,,0.00,VWS V14.01,2013-06-21 10:02:00,
2013-06-21 06:07:00,65.3,58.3,30.05,NW,314,0.0,0.0,78,0.00,,,0.00,VWS V14.01,2013-06-21 10:07:00,
2013-06-21 06:12:00,65.7,58.3,30.05,NW,315,0.0,0.0,77,0.00,,,0.00,VWS V14.01,2013-06-21 10:12:00,
2013-06-21 06:17:00,66.0,58.6,30.05,NW,315,0.0,0.0,77,0.00,,,0.00,VWS V14.01,2013-06-21 10:17:00,
2013-06-21 06:22:00,66.0,58.2,30.05,NW,313,0.0,0.0,76,0.00,,,0.00,VWS V14.01,2013-06-21 10:22:00,
2013-06-21 06:27:00,66.3,58.5,30.05,NW,314,0.0,0.0,76,0.00,,,0.00,VWS V14.01,2013-06-21 10:27:00,
2013-06-21 06:32:00,66.5,58.7,30.05,NW,312,0.0,1.0,76,0.00,,,0.00,VWS V14.01,2013-06-21 10:32:00,
2013-06-21 06:37:00,66.6,58.8,30.05,NW,311,0.0,1.0,76,0.00,,,0.00,VWS V14.01,2013-06-21 10:37:00,
2013-06-21 06:42:00,66.7,58.5,30.05,NW,310,0.0,1.0,75,0.00,,,0.00,VWS V14.01,2013-06-21 10:42:00,
2013-06-21 06:47:00,66.8,58.6,30.05,NW,309,0.0,1.0,75,0.00,,,0.00,VWS V14.01,2013-06-21 10:47:00,
2013-06-21 06:52:00,66.9,58.7,30.05,NW,309,0.0,1.0,75,0.00,,,0.00,VWS V14.01,2013-06-21 10:52:00,
2013-06-21 06:57:00,66.9,58.7,30.05,NW,312,0.0,1.0,75,0.00,,,0.00,VWS V14.01,2013-06-21 10:57:00,
2013-06-21 07:02:00,66.9,58.3,30.05,NW,311,0.0,1.0,74,0.00,,,0.00,VWS V14.01,2013-06-21 11:02:00,
2013-06-21 07:07:00,67.0,58.8,30.05,NW,311,0.0,0.0,75,0.00,,,0.00,VWS V14.01,2013-06-21 11:07:00,
2013-06-21 07:12:00,67.0,58.5,30.05,NW,310,0.0,1.0,74,0.00,,,0.00,VWS V14.01,2013-06-21 11:12:00,
2013-06-21 07:17:00,67.1,58.9,30.06,NW,311,0.0,1.0,75,0.00,,,0.00,VWS V14.01,2013-06-21 11:17:00,
2013-06-21 07:22:00,67.1,58.5,30.06,NW,311,0.0,1.0,74,0.00,,,0.00,VWS V14.01,2013-06-21 11:22:00,
2013-06-21 07:27:00,67.2,59.0,30.06,NW,310,0.0,1.0,75,0.00,,,0.00,VWS V14.01,2013-06-21 11:27:00,
2013-06-21 07:32:00,67.2,59.0,30.06,NW,311,0.0,1.0,75,0.00,,,0.00,VWS V14.01,2013-06-21 11:32:00,
2013-06-21 07:37:00,67.3,59.1,30.05,NW,309,0.0,1.0,75,0.00,,,0.00,VWS V14.01,2013-06-21 11:37:00,
2013-06-21 07:42:00,67.4,59.6,30.05,NW,314,1.0,1.0,76,0.00,,,0.00,VWS V14.01,2013-06-21 11:42:00,
2013-06-21 07:47:00,67.5,59.3,30.05,NW,315,0.0,2.0,75,0.00,,,0.00,VWS V14.01,2013-06-21 11:47:00,
2013-06-21 07:52:00,67.7,59.5,30.05,NW,314,0.0,2.0,75,0.00,,,0.00,VWS V14.01,2013-06-21 11:52:00,
2013-06-21 07:57:00,67.9,59.7,30.05,NW,314,1.0,2.0,75,0.00,,,0.00,VWS V14.01,2013-06-21 11:57:00,
2013-06-21 08:02:00,68.1,59.9,30.05,NW,314,0.0,2.0,75,0.00,,,0.00,VWS V14.01,2013-06-21 12:02:00,
2013-06-21 08:07:00,68.3,60.1,30.05,WNW,300,0.0,1.0,75,0.00,,,0.00,VWS V14.01,2013-06-21 12:07:00,
2013-06-21 08:12:00,68.7,60.1,30.05,NW,305,0.0,1.0,74,0.00,,,0.00,VWS V14.01,2013-06-21 12:12:00,
2013-06-21 08:17:00,69.0,60.4,30.06,WNW,302,0.0,1.0,74,0.00,,,0.00,VWS V14.01,2013-06-21 12:17:00,
2013-06-21 08:22:00,69.4,60.8,30.06,WNW,302,1.0,1.0,74,0.00,,,0.00,VWS V14.01,2013-06-21 12:22:00,
2013-06-21 08:27:00,69.8,61.2,30.06,WNW,303,0.0,1.0,74,0.00,,,0.00,VWS V14.01,2013-06-21 12:27:00,
2013-06-21 08:32:00,70.2,61.2,30.06,NW,304,0.0,1.0,73,0.00,,,0.00,VWS V14.01,2013-06-21 12:32:00,
2013-06-21 08:37:00,70.6,61.1,30.06,WNW,300,0.0,2.0,72,0.00,,,0.00,VWS V14.01,2013-06-21 12:37:00,
2013-06-21 08:42:00,71.0,61.1,30.07,NW,316,0.0,2.0,71,0.00,,,0.00,VWS V14.01,2013-06-21 12:42:00,
2013-06-21 08:47:00,71.4,61.5,30.07,WNW,300,0.0,2.0,71,0.00,,,0.00,VWS V14.01,2013-06-21 12:47:00,
2013-06-21 08:52:00,71.9,61.6,30.07,WNW,291,1.0,3.0,70,0.00,,,0.00,VWS V14.01,2013-06-21 12:52:00,
2013-06-21 08:57:00,72.5,61.8,30.07,NW,304,0.0,3.0,69,0.00,,,0.00,VWS V14.01,2013-06-21 12:57:00,
2013-06-21 09:02:00,72.9,61.7,30.07,WNW,303,0.0,3.0,68,0.00,,,0.00,VWS V14.01,2013-06-21 13:02:00,
2013-06-21 09:07:00,73.3,61.3,30.07,NW,311,1.0,2.0,66,0.00,,,0.00,VWS V14.01,2013-06-21 13:07:00,
2013-06-21 09:12:00,73.8,61.7,30.07,NW,306,1.0,2.0,66,0.00,,,0.00,VWS V14.01,2013-06-21 13:12:00,
2013-06-21 09:17:00,74.2,62.1,30.07,NW,305,0.0,2.0,66,0.00,,,0.00,VWS V14.01,2013-06-21 13:17:00,
2013-06-21 09:22:00,74.5,62.0,30.07,NW,305,0.0,2.0,65,0.00,,,0.00,VWS V14.01,2013-06-21 13:22:00,
2013-06-21 09:27:00,74.8,61.8,30.07,NW,306,0.0,2.0,64,0.00,,,0.00,VWS V14.01,2013-06-21 13:27:00,
2013-06-21 09:32:00,75.1,62.1,30.07,NW,316,0.0,2.0,64,0.00,,,0.00,VWS V14.01,2013-06-21 13:32:00,
2013-06-21 09:37:00,75.4,62.4,30.07,ENE,67,1.0,3.0,64,0.00,,,0.00,VWS V14.01,2013-06-21 13:37:00,
2013-06-21 09:42:00,75.7,62.7,30.08,SE,129,0.0,3.0,64,0.00,,,0.00,VWS V14.01,2013-06-21 13:42:00,
2013-06-21 09:47:00,76.0,63.4,30.08,SE,129,0.0,3.0,65,0.00,,,0.00,VWS V14.01,2013-06-21 13:47:00,
2013-06-21 09:52:00,76.3,63.2,30.07,ESE,110,0.0,3.0,64,0.00,,,0.00,VWS V14.01,2013-06-21 13:52:00,
2013-06-21 09:57:00,76.6,63.5,30.06,East,87,0.0,3.0,64,0.00,,,0.00,VWS V14.01,2013-06-21 13:57:00,
2013-06-21 10:02:00,76.8,62.8,30.06,East,82,1.0,4.0,62,0.00,,,0.00,VWS V14.01,2013-06-21 14:02:00,
2013-06-21 10:07:00,77.1,62.6,30.06,WNW,300,0.0,1.0,61,0.00,,,0.00,VWS V14.01,2013-06-21 14:07:00,
2013-06-21 10:12:00,77.3,63.3,30.06,WNW,300,0.0,1.0,62,0.00,,,0.00,VWS V14.01,2013-06-21 14:12:00,
2013-06-21 10:17:00,77.6,63.1,30.06,NW,306,2.0,4.0,61,0.00,,,0.00,VWS V14.01,2013-06-21 14:17:00,
2013-06-21 10:22:00,77.9,62.9,30.06,WNW,293,0.0,4.0,60,0.00,,,0.00,VWS V14.01,2013-06-21 14:22:00,
2013-06-21 10:27:00,78.1,62.1,30.06,ESE,103,0.0,4.0,58,0.00,,,0.00,VWS V14.01,2013-06-21 14:27:00,
2013-06-21 10:32:00,78.3,62.8,30.05,East,85,1.0,4.0,59,0.00,,,0.00,VWS V14.01,2013-06-21 14:32:00,
2013-06-21 10:37:00,78.6,63.6,30.05,NNW,342,0.0,4.0,60,0.00,,,0.00,VWS V14.01,2013-06-21 14:37:00,
2013-06-21 10:42:00,78.7,62.2,30.05,WNW,284,0.0,4.0,57,0.00,,,0.00,VWS V14.01,2013-06-21 14:42:00,
2013-06-21 10:47:00,79.0,62.5,30.05,NW,316,0.0,4.0,57,0.00,,,0.00,VWS V14.01,2013-06-21 14:47:00,
2013-06-21 10:52:00,79.5,63.0,30.05,WNW,300,2.0,4.0,57,0.00,,,0.00,VWS V14.01,2013-06-21 14:52:00,
2013-06-21 10:57:00,79.9,63.3,30.05,ESE,107,0.0,4.0,57,0.00,,,0.00,VWS V14.01,2013-06-21 14:57:00,
2013-06-21 11:02:00,80.3,64.2,30.05,ENE,65,0.0,4.0,58,0.00,,,0.00,VWS V14.01,2013-06-21 15:02:00,
2013-06-21 11:07:00,80.6,63.0,30.05,West,269,0.0,2.0,55,0.00,,,0.00,VWS V14.01,2013-06-21 15:07:00,
2013-06-21 11:12:00,80.8,62.6,30.05,WNW,293,0.0,2.0,54,0.00,,,0.00,VWS V14.01,2013-06-21 15:12:00,
2013-06-21 11:17:00,81.2,63.0,30.05,NW,311,1.0,2.0,54,0.00,,,0.00,VWS V14.01,2013-06-21 15:17:00,
2013-06-21 11:22:00,81.4,62.1,30.06,NW,307,1.0,2.0,52,0.00,,,0.00,VWS V14.01,2013-06-21 15:22:00,
2013-06-21 11:27:00,81.6,62.3,30.06,WNW,300,0.0,3.0,52,0.00,,,0.00,VWS V14.01,2013-06-21 15:27:00,
2013-06-21 11:32:00,81.7,61.8,30.06,WNW,298,0.0,3.0,51,0.00,,,0.00,VWS V14.01,2013-06-21 15:32:00,
2013-06-21 11:37:00,81.9,62.0,30.07,WNW,285,1.0,3.0,51,0.00,,,0.00,VWS V14.01,2013-06-21 15:37:00,
2013-06-21 11:42:00,81.9,62.0,30.07,NW,305,0.0,4.0,51,0.00,,,0.00,VWS V14.01,2013-06-21 15:42:00,
2013-06-21 11:47:00,82.3,61.8,30.07,East,87,2.0,5.0,50,0.00,,,0.00,VWS V14.01,2013-06-21 15:47:00,
2013-06-21 11:52:00,82.6,62.1,30.07,WNW,297,1.0,5.0,50,0.00,,,0.00,VWS V14.01,2013-06-21 15:52:00,
2013-06-21 11:57:00,82.9,61.8,30.07,WNW,297,0.0,5.0,49,0.00,,,0.00,VWS V14.01,2013-06-21 15:57:00,
2013-06-21 12:02:00,83.1,61.4,30.07,NW,321,2.0,5.0,48,0.00,,,0.00,VWS V14.01,2013-06-21 16:02:00,
2013-06-21 12:07:00,83.4,61.7,30.07,East,90,1.0,3.0,48,0.00,,,0.00,VWS V14.01,2013-06-21 16:07:00,
2013-06-21 12:12:00,83.9,62.7,30.06,North,3,1.0,4.0,49,0.00,,,0.00,VWS V14.01,2013-06-21 16:12:00,
2013-06-21 12:17:00,84.1,62.9,30.06,West,274,0.0,5.0,49,0.00,,,0.00,VWS V14.01,2013-06-21 16:17:00,
2013-06-21 12:22:00,84.1,61.7,30.06,NW,323,0.0,5.0,47,0.00,,,0.00,VWS V14.01,2013-06-21 16:22:00,
2013-06-21 12:27:00,84.0,61.6,30.06,East,89,1.0,5.0,47,0.00,,,0.00,VWS V14.01,2013-06-21 16:27:00,
2013-06-21 12:32:00,84.1,62.3,30.06,NE,41,1.0,5.0,48,0.00,,,0.00,VWS V14.01,2013-06-21 16:32:00,
2013-06-21 12:38:00,84.5,63.8,30.06,NW,320,2.0,5.0,50,0.00,,,0.00,VWS V14.01,2013-06-21 16:38:00,
2013-06-21 12:43:00,85.0,62.5,30.06,WNW,297,1.0,5.0,47,0.00,,,0.00,VWS V14.01,2013-06-21 16:43:00,
2013-06-21 12:48:00,84.8,61.1,30.05,ENE,70,0.0,5.0,45,0.00,,,0.00,VWS V14.01,2013-06-21 16:48:00,
2013-06-21 12:53:00,84.7,62.3,30.06,West,264,0.0,5.0,47,0.00,,,0.00,VWS V14.01,2013-06-21 16:53:00,
2013-06-21 12:58:00,84.7,61.7,30.06,West,278,1.0,5.0,46,0.00,,,0.00,VWS V14.01,2013-06-21 16:58:00,
2013-06-21 13:03:00,84.5,62.1,30.05,WSW,255,1.0,1.0,47,0.00,,,0.00,VWS V14.01,2013-06-21 17:03:00,
2013-06-21 13:08:00,84.5,60.8,30.05,NW,316,0.0,2.0,45,0.00,,,0.00,VWS V14.01,2013-06-21 17:08:00,
2013-06-21 13:14:00,84.5,60.8,30.05,West,278,0.0,3.0,45,0.00,,,0.00,VWS V14.01,2013-06-21 17:14:00,
2013-06-21 13:19:00,84.2,61.2,30.05,WNW,285,0.0,3.0,46,0.00,,,0.00,VWS V14.01,2013-06-21 17:19:00,
2013-06-21 13:24:00,84.6,62.2,30.04,WNW,284,2.0,3.0,47,0.00,,,0.00,VWS V14.01,2013-06-21 17:24:00,
2013-06-21 13:29:00,85.1,60.8,30.04,WNW,291,2.0,3.0,44,0.00,,,0.00,VWS V14.01,2013-06-21 17:29:00,
2013-06-21 13:34:00,85.7,60.7,30.04,NW,323,0.0,3.0,43,0.00,,,0.00,VWS V14.01,2013-06-21 17:34:00,
2013-06-21 13:39:00,86.4,59.2,30.04,West,275,0.0,3.0,40,0.00,,,0.00,VWS V14.01,2013-06-21 17:39:00,
2013-06-21 13:44:00,86.2,58.4,30.04,NW,307,2.0,3.0,39,0.00,,,0.00,VWS V14.01,2013-06-21 17:44:00,
2013-06-21 13:45:00,86.2,57.6,30.04,WNW,295,0.0,3.0,38,0.00,,,0.00,VWS V14.01,2013-06-21 17:45:00,
2013-06-21 13:46:00,86.2,57.6,30.04,WNW,295,0.0,3.0,38,0.00,,,0.00,VWS V14.01,2013-06-21 17:46:00,
2013-06-21 13:51:00,86.5,57.2,30.04,WNW,301,1.0,3.0,37,0.00,,,0.00,VWS V14.01,2013-06-21 17:51:00,
2013-06-21 13:56:00,86.3,58.5,30.03,NW,304,0.0,4.0,39,0.00,,,0.00,VWS V14.01,2013-06-21 17:56:00,
2013-06-21 14:01:00,86.7,58.1,30.03,WSW,257,0.0,4.0,38,0.00,,,0.00,VWS V14.01,2013-06-21 18:01:00,
2013-06-21 14:06:00,87.0,57.6,30.03,WNW,295,1.0,3.0,37,0.00,,,0.00,VWS V14.01,2013-06-21 18:06:00,
2013-06-21 14:11:00,86.9,57.5,30.03,ENE,58,1.0,4.0,37,0.00,,,0.00,VWS V14.01,2013-06-21 18:11:00,
2013-06-21 14:16:00,87.5,57.3,30.03,NW,306,0.0,4.0,36,0.00,,,0.00,VWS V14.01,2013-06-21 18:16:00,
2013-06-21 14:21:00,87.8,58.3,30.03,East,94,0.0,8.0,37,0.00,,,0.00,VWS V14.01,2013-06-21 18:21:00,
2013-06-21 14:23:00,87.8,57.5,30.03,West,268,0.0,8.0,36,0.00,,,0.00,VWS V14.01,2013-06-21 18:23:00,
2013-06-21 14:28:00,87.9,58.4,30.02,West,274,1.0,8.0,37,0.00,,,0.00,VWS V14.01,2013-06-21 18:28:00,
2013-06-21 14:33:00,87.7,59.0,30.02,WNW,297,0.0,8.0,38,0.00,,,0.00,VWS V14.01,2013-06-21 18:33:00,
2013-06-21 14:38:00,88.2,57.9,30.03,NW,305,0.0,8.0,36,0.00,,,0.00,VWS V14.01,2013-06-21 18:38:00,
2013-06-21 14:43:00,88.3,58.8,30.03,SSE,163,0.0,8.0,37,0.00,,,0.00,VWS V14.01,2013-06-21 18:43:00,
2013-06-21 14:45:00,88.3,59.5,30.02,NW,311,1.0,8.0,38,0.00,,,0.00,VWS V14.01,2013-06-21 18:45:00,
2013-06-21 14:50:00,88.7,58.3,30.03,NW,304,1.0,8.0,36,0.00,,,0.00,VWS V14.01,2013-06-21 18:50:00,
2013-06-21 14:55:00,88.8,58.4,30.03,NW,304,2.0,8.0,36,0.00,,,0.00,VWS V14.01,2013-06-21 18:55:00,
2013-06-21 15:00:00,88.6,59.0,30.02,West,271,0.0,8.0,37,0.00,,,0.00,VWS V14.01,2013-06-21 19:00:00,
2013-06-21 15:06:00,89.0,58.6,30.02,West,271,0.0,3.0,36,0.00,,,0.00,VWS V14.01,2013-06-21 19:06:00,
2013-06-21 15:12:00,89.0,59.4,30.02,NNW,331,1.0,3.0,37,0.00,,,0.00,VWS V14.01,2013-06-21 19:12:00,
2013-06-21 15:17:00,89.2,57.2,30.02,NW,323,0.0,4.0,34,0.00,,,0.00,VWS V14.01,2013-06-21 19:17:00,
2013-06-21 15:20:00,88.7,58.3,30.02,West,268,0.0,4.0,36,0.00,,,0.00,VWS V14.01,2013-06-21 19:20:00,
2013-06-21 15:25:00,88.5,57.4,30.02,WNW,297,0.0,4.0,35,0.00,,,0.00,VWS V14.01,2013-06-21 19:25:00,
2013-06-21 15:30:00,88.8,57.7,30.01,WNW,300,0.0,4.0,35,0.00,,,0.00,VWS V14.01,2013-06-21 19:30:00,
2013-06-21 15:35:00,89.0,59.4,30.01,NW,311,0.0,4.0,37,0.00,,,0.00,VWS V14.01,2013-06-21 19:35:00,
2013-06-21 15:40:00,89.0,59.4,30.01,NW,316,0.0,4.0,37,0.00,,,0.00,VWS V14.01,2013-06-21 19:40:00,
2013-06-21 15:42:00,89.1,60.2,30.01,NNW,329,1.0,4.0,38,0.00,,,0.00,VWS V14.01,2013-06-21 19:42:00,
2013-06-21 15:47:00,88.8,58.4,30.01,WSW,253,1.0,4.0,36,0.00,,,0.00,VWS V14.01,2013-06-21 19:47:00,
2013-06-21 15:52:00,88.5,59.7,30.01,WNW,283,0.0,4.0,38,0.00,,,0.00,VWS V14.01,2013-06-21 19:52:00,
2013-06-21 15:57:00,88.0,59.2,30.00,NNW,339,2.0,4.0,38,0.00,,,0.00,VWS V14.01,2013-06-21 19:57:00,
2013-06-21 16:02:00,87.6,58.9,30.00,WSW,239,2.0,2.0,38,0.00,,,0.00,VWS V14.01,2013-06-21 20:02:00,
2013-06-21 16:04:00,87.4,60.1,30.00,NW,313,2.0,4.0,40,0.00,,,0.00,VWS V14.01,2013-06-21 20:04:00,
2013-06-21 16:08:00,87.2,60.0,30.01,WSW,252,1.0,4.0,40,0.00,,,0.00,VWS V14.01,2013-06-21 20:08:00,
2013-06-21 16:11:00,87.2,58.5,30.01,WNW,288,0.0,4.0,38,0.00,,,0.00,VWS V14.01,2013-06-21 20:11:00,
2013-06-21 16:15:00,87.4,59.4,30.01,WNW,287,0.0,4.0,39,0.00,,,0.00,VWS V14.01,2013-06-21 20:15:00,
2013-06-21 16:20:00,87.6,58.9,30.00,NW,316,0.0,4.0,38,0.00,,,0.00,VWS V14.01,2013-06-21 20:20:00,
2013-06-21 16:25:00,87.6,58.9,30.01,NW,309,0.0,4.0,38,0.00,,,0.00,VWS V14.01,2013-06-21 20:25:00,
2013-06-21 16:30:00,87.3,59.3,30.01,WNW,297,0.0,4.0,39,0.00,,,0.00,VWS V14.01,2013-06-21 20:30:00,
2013-06-21 16:35:00,87.4,59.4,30.01,WNW,295,1.0,4.0,39,0.00,,,0.00,VWS V14.01,2013-06-21 20:35:00,
2013-06-21 16:40:00,87.4,59.4,30.00,WNW,289,0.0,4.0,39,0.00,,,0.00,VWS V14.01,2013-06-21 20:40:00,
2013-06-21 16:46:00,87.1,58.4,30.00,NW,311,1.0,4.0,38,0.00,,,0.00,VWS V14.01,2013-06-21 20:46:00,
2013-06-21 16:51:00,86.8,59.6,30.00,WNW,288,0.0,4.0,40,0.00,,,0.00,VWS V14.01,2013-06-21 20:51:00,
2013-06-21 16:56:00,86.4,59.9,30.00,WNW,295,0.0,4.0,41,0.00,,,0.00,VWS V14.01,2013-06-21 20:56:00,
2013-06-21 17:01:00,86.1,59.7,30.00,WNW,300,0.0,4.0,41,0.00,,,0.00,VWS V14.01,2013-06-21 21:01:00,
2013-06-21 17:04:00,85.9,60.2,30.00,WNW,292,0.0,1.0,42,0.00,,,0.00,VWS V14.01,2013-06-21 21:04:00,
2013-06-21 17:09:00,86.0,59.6,30.00,WNW,290,0.0,1.0,41,0.00,,,0.00,VWS V14.01,2013-06-21 21:09:00,
2013-06-21 17:14:00,86.1,60.3,29.99,West,269,0.0,1.0,42,0.00,,,0.00,VWS V14.01,2013-06-21 21:14:00,
2013-06-21 17:19:00,86.1,59.7,29.99,WNW,283,0.0,3.0,41,0.00,,,0.00,VWS V14.01,2013-06-21 21:19:00,
2013-06-21 17:24:00,86.0,59.6,29.99,NW,309,1.0,3.0,41,0.00,,,0.00,VWS V14.01,2013-06-21 21:24:00,
2013-06-21 17:29:00,85.9,60.8,29.99,WNW,295,0.0,3.0,43,0.00,,,0.00,VWS V14.01,2013-06-21 21:29:00,
2013-06-21 17:34:00,85.7,58.6,29.99,NW,307,0.0,3.0,40,0.00,,,0.00,VWS V14.01,2013-06-21 21:34:00,
2013-06-21 17:39:00,85.6,59.9,29.99,WNW,294,3.0,3.0,42,0.00,,,0.00,VWS V14.01,2013-06-21 21:39:00,
2013-06-21 17:44:00,85.6,59.2,29.99,NW,320,0.0,3.0,41,0.00,,,0.00,VWS V14.01,2013-06-21 21:44:00,
2013-06-21 17:49:00,85.7,59.3,29.99,WNW,299,0.0,3.0,41,0.00,,,0.00,VWS V14.01,2013-06-21 21:49:00,
2013-06-21 17:54:00,85.6,57.8,29.99,WNW,300,0.0,3.0,39,0.00,,,0.00,VWS V14.01,2013-06-21 21:54:00,
2013-06-21 17:59:00,85.4,57.7,29.99,WNW,295,1.0,3.0,39,0.00,,,0.00,VWS V14.01,2013-06-21 21:59:00,
2013-06-21 18:04:00,85.4,57.7,29.98,West,259,0.0,2.0,39,0.00,,,0.00,VWS V14.01,2013-06-21 22:04:00,
2013-06-21 18:09:00,85.3,58.3,29.98,NW,305,3.0,3.0,40,0.00,,,0.00,VWS V14.01,2013-06-21 22:09:00,
2013-06-21 18:14:00,85.1,57.4,29.98,WNW,297,1.0,3.0,39,0.00,,,0.00,VWS V14.01,2013-06-21 22:14:00,
2013-06-21 18:19:00,85.1,58.8,29.97,WNW,295,0.0,3.0,41,0.00,,,0.00,VWS V14.01,2013-06-21 22:19:00,
2013-06-21 18:24:00,85.0,59.4,29.97,WNW,299,0.0,3.0,42,0.00,,,0.00,VWS V14.01,2013-06-21 22:24:00,
2013-06-21 18:29:00,84.8,59.2,29.97,WNW,285,0.0,3.0,42,0.00,,,0.00,VWS V14.01,2013-06-21 22:29:00,
2013-06-21 18:34:00,84.8,58.5,29.97,WNW,287,0.0,3.0,41,0.00,,,0.00,VWS V14.01,2013-06-21 22:34:00,
2013-06-21 18:39:00,84.8,58.5,29.97,NW,311,0.0,3.0,41,0.00,,,0.00,VWS V14.01,2013-06-21 22:39:00,
2013-06-21 18:44:00,84.8,58.5,29.97,WNW,299,0.0,3.0,41,0.00,,,0.00,VWS V14.01,2013-06-21 22:44:00,
2013-06-21 18:49:00,84.8,59.8,29.97,WNW,291,0.0,3.0,43,0.00,,,0.00,VWS V14.01,2013-06-21 22:49:00,
2013-06-21 18:54:00,84.8,58.5,29.97,WNW,293,0.0,3.0,41,0.00,,,0.00,VWS V14.01,2013-06-21 22:54:00,
2013-06-21 18:59:00,84.7,59.1,29.97,NW,312,0.0,3.0,42,0.00,,,0.00,VWS V14.01,2013-06-21 22:59:00,
2013-06-21 19:04:00,84.7,59.8,29.97,NW,309,1.0,1.0,43,0.00,,,0.00,VWS V14.01,2013-06-21 23:04:00,
2013-06-21 19:09:00,84.5,59.6,29.96,West,262,1.0,2.0,43,0.00,,,0.00,VWS V14.01,2013-06-21 23:09:00,
2013-06-21 19:14:00,84.2,59.3,29.96,West,263,0.0,2.0,43,0.00,,,0.00,VWS V14.01,2013-06-21 23:14:00,
2013-06-21 19:19:00,84.0,59.8,29.96,West,262,0.0,2.0,44,0.00,,,0.00,VWS V14.01,2013-06-21 23:19:00,
2013-06-21 19:24:00,83.7,59.5,29.96,WNW,285,0.0,2.0,44,0.00,,,0.00,VWS V14.01,2013-06-21 23:24:00,
2013-06-21 19:29:00,83.4,59.2,29.96,WNW,295,0.0,2.0,44,0.00,,,0.00,VWS V14.01,2013-06-21 23:29:00,
2013-06-21 19:34:00,83.2,59.7,29.96,WNW,295,0.0,2.0,45,0.00,,,0.00,VWS V14.01,2013-06-21 23:34:00,
2013-06-21 19:39:00,83.0,60.1,29.96,WNW,294,0.0,2.0,46,0.00,,,0.00,VWS V14.01,2013-06-21 23:39:00,
2013-06-21 19:44:00,82.8,59.3,29.96,WNW,294,0.0,2.0,45,0.00,,,0.00,VWS V14.01,2013-06-21 23:44:00,
2013-06-21 19:49:00,82.5,59.0,29.96,WNW,295,0.0,2.0,45,0.00,,,0.00,VWS V14.01,2013-06-21 23:49:00,
2013-06-21 19:54:00,82.3,59.5,29.96,WNW,295,0.0,2.0,46,0.00,,,0.00,VWS V14.01,2013-06-21 23:54:00,
2013-06-21 19:59:00,82.0,58.6,29.95,WNW,295,0.0,2.0,45,0.00,,,0.00,VWS V14.01,2013-06-21 23:59:00,
2013-06-21 20:04:00,81.7,58.9,29.95,WNW,295,0.0,1.0,46,0.00,,,0.00,VWS V14.01,2013-06-22 00:04:00,
2013-06-21 20:09:00,81.4,59.3,29.95,WNW,291,0.0,1.0,47,0.00,,,0.00,VWS V14.01,2013-06-22 00:09:00,
2013-06-21 20:14:00,81.1,59.0,29.94,WNW,290,0.0,1.0,47,0.00,,,0.00,VWS V14.01,2013-06-22 00:14:00,
2013-06-21 20:19:00,80.8,58.7,29.94,WNW,291,0.0,1.0,47,0.00,,,0.00,VWS V14.01,2013-06-22 00:19:00,
2013-06-21 20:24:00,80.5,58.4,29.94,WNW,291,0.0,1.0,47,0.00,,,0.00,VWS V14.01,2013-06-22 00:24:00,
2013-06-21 20:29:00,80.2,58.8,29.94,WNW,291,0.0,1.0,48,0.00,,,0.00,VWS V14.01,2013-06-22 00:29:00,
2013-06-21 20:34:00,80.0,58.6,29.94,WNW,291,0.0,1.0,48,0.00,,,0.00,VWS V14.01,2013-06-22 00:34:00,
2013-06-21 20:39:00,79.6,58.2,29.94,WNW,291,0.0,1.0,48,0.00,,,0.00,VWS V14.01,2013-06-22 00:39:00,
2013-06-21 20:44:00,79.4,59.2,29.94,WNW,291,0.0,1.0,50,0.00,,,0.00,VWS V14.01,2013-06-22 00:44:00,
2013-06-21 20:49:00,79.1,58.3,29.94,WNW,291,0.0,1.0,49,0.00,,,0.00,VWS V14.01,2013-06-22 00:49:00,
2013-06-21 20:54:00,78.8,58.6,29.94,WNW,291,0.0,1.0,50,0.00,,,0.00,VWS V14.01,2013-06-22 00:54:00,
2013-06-21 20:59:00,78.7,58.5,29.93,WNW,291,0.0,1.0,50,0.00,,,0.00,VWS V14.01,2013-06-22 00:59:00,
2013-06-21 21:04:00,78.4,58.8,29.93,WNW,291,0.0,0.0,51,0.00,,,0.00,VWS V14.01,2013-06-22 01:04:00,
2013-06-21 21:09:00,77.9,58.9,29.94,WNW,291,0.0,0.0,52,0.00,,,0.00,VWS V14.01,2013-06-22 01:09:00,
2013-06-21 21:14:00,77.5,58.5,29.93,WNW,290,0.0,0.0,52,0.00,,,0.00,VWS V14.01,2013-06-22 01:14:00,
2013-06-21 21:19:00,77.3,58.8,29.93,WNW,291,0.0,0.0,53,0.00,,,0.00,VWS V14.01,2013-06-22 01:19:00,
2013-06-21 21:24:00,76.9,59.0,29.93,WNW,290,0.0,0.0,54,0.00,,,0.00,VWS V14.01,2013-06-22 01:24:00,
2013-06-21 21:29:00,76.5,58.6,29.93,WNW,291,0.0,0.0,54,0.00,,,0.00,VWS V14.01,2013-06-22 01:29:00,
2013-06-21 21:34:00,76.6,58.2,29.93,WNW,289,0.0,1.0,53,0.00,,,0.00,VWS V14.01,2013-06-22 01:34:00,
2013-06-21 21:39:00,76.8,58.4,29.93,WNW,290,0.0,1.0,53,0.00,,,0.00,VWS V14.01,2013-06-22 01:39:00,
2013-06-21 21:44:00,76.9,58.0,29.93,WNW,285,0.0,1.0,52,0.00,,,0.00,VWS V14.01,2013-06-22 01:44:00,
2013-06-21 21:49:00,77.0,58.0,29.93,West,264,0.0,2.0,52,0.00,,,0.00,VWS V14.01,2013-06-22 01:49:00,
2013-06-21 21:54:00,77.0,58.0,29.93,West,263,0.0,2.0,52,0.00,,,0.00,VWS V14.01,2013-06-22 01:54:00,
2013-06-21 21:59:00,76.7,58.8,29.94,West,263,0.0,2.0,54,0.00,,,0.00,VWS V14.01,2013-06-22 01:59:00,
2013-06-21 22:04:00,76.4,58.0,29.94,West,264,0.0,1.0,53,0.00,,,0.00,VWS V14.01,2013-06-22 02:04:00,
2013-06-21 22:09:00,76.4,58.5,29.94,West,264,1.0,1.0,54,0.00,,,0.00,VWS V14.01,2013-06-22 02:09:00,
2013-06-21 22:14:00,76.3,58.5,29.93,West,263,0.0,1.0,54,0.00,,,0.00,VWS V14.01,2013-06-22 02:14:00,
2013-06-21 22:19:00,76.2,58.4,29.94,West,263,0.0,1.0,54,0.00,,,0.00,VWS V14.01,2013-06-22 02:19:00,
2013-06-21 22:24:00,76.0,58.2,29.94,West,263,0.0,1.0,54,0.00,,,0.00,VWS V14.01,2013-06-22 02:24:00,
2013-06-21 22:29:00,75.9,58.6,29.94,West,263,0.0,1.0,55,0.00,,,0.00,VWS V14.01,2013-06-22 02:29:00,
2013-06-21 22:34:00,75.8,58.5,29.94,West,263,0.0,1.0,55,0.00,,,0.00,VWS V14.01,2013-06-22 02:34:00,
2013-06-21 22:39:00,75.8,59.0,29.94,West,263,0.0,1.0,56,0.00,,,0.00,VWS V14.01,2013-06-22 02:39:00,
2013-06-21 22:44:00,75.7,58.9,29.94,West,263,1.0,1.0,56,0.00,,,0.00,VWS V14.01,2013-06-22 02:44:00,
2013-06-21 22:49:00,75.7,59.4,29.94,West,263,0.0,1.0,57,0.00,,,0.00,VWS V14.01,2013-06-22 02:49:00,
2013-06-21 22:54:00,75.7,59.4,29.94,West,263,1.0,1.0,57,0.00,,,0.00,VWS V14.01,2013-06-22 02:54:00,
2013-06-21 22:59:00,75.7,59.4,29.94,West,263,0.0,1.0,57,0.00,,,0.00,VWS V14.01,2013-06-22 02:59:00,
2013-06-21 23:04:00,75.6,59.8,29.95,West,263,0.0,0.0,58,0.00,,,0.00,VWS V14.01,2013-06-22 03:04:00,
2013-06-21 23:09:00,75.5,60.2,29.95,West,263,0.0,1.0,59,0.00,,,0.00,VWS V14.01,2013-06-22 03:09:00,
2013-06-21 23:14:00,75.4,60.1,29.95,West,264,0.0,1.0,59,0.00,,,0.00,VWS V14.01,2013-06-22 03:14:00,
2013-06-21 23:19:00,75.3,60.5,29.95,West,263,0.0,1.0,60,0.00,,,0.00,VWS V14.01,2013-06-22 03:19:00,
2013-06-21 23:24:00,75.3,60.5,29.95,West,263,0.0,1.0,60,0.00,,,0.00,VWS V14.01,2013-06-22 03:24:00,
2013-06-21 23:29:00,75.1,60.8,29.96,West,276,0.0,1.0,61,0.00,,,0.00,VWS V14.01,2013-06-22 03:29:00,
2013-06-21 23:34:00,74.8,60.9,29.97,West,276,0.0,1.0,62,0.00,,,0.00,VWS V14.01,2013-06-22 03:34:00,
2013-06-21 23:39:00,74.4,61.0,29.97,West,276,0.0,1.0,63,0.00,,,0.00,VWS V14.01,2013-06-22 03:39:00,
2013-06-21 23:44:00,73.9,61.0,29.97,West,276,0.0,1.0,64,0.00,,,0.00,VWS V14.01,2013-06-22 03:44:00,
2013-06-21 23:49:00,73.5,60.6,29.97,West,276,0.0,1.0,64,0.00,,,0.00,VWS V14.01,2013-06-22 03:49:00,
2013-06-21 23:54:00,73.2,61.2,29.97,West,276,0.0,1.0,66,0.00,,,0.00,VWS V14.01,2013-06-22 03:54:00,
2013-06-21 23:59:00,73.0,61.4,29.97,West,276,0.0,1.0,67,0.00,,,0.00,VWS V14.01,2013-06-22 03:59:00,